Regional Weather Roundup
Issued by NWS State College, PA

Home | Current Version | Previous Version | Graphics & Text | Print | Product List | Glossary Off
Versions: 1 2 3 4 5 6 7 8 9 10 11 12 13 14 15 16 17 18 19 20 21 22 23 24 25 26 27 28 29 30 31 32 33 34 35 36 37 38 39 40 41 42 43 44 45 46 47 48 49 50

000
ASUS41 KCTP 160810
RWRCTP

REGIONAL WEATHER ROUNDUP
NATIONAL WEATHER SERVICE STATE COLLEGE PA
400 AM EDT WED APR 16 2014

Note: "fair" indicates few or no clouds below 12,000 feet with no
significant weather and/or obstructions to visibility.

* = STATION THAT DOES NOT REPORT PRECIPITATION /E.G. RAIN...SNOW...ETC/
    THUNDER OR FOG.

PAZ002>004-007>009-013>016-020>023-029>032-160900-
WESTERN PENNSYLVANIA

CITY           SKY/WX    TMP DP  RH WIND       PRES   REMARKS
ERIE           CLEAR     26  12  55 N7        30.27R
MEADVILLE      NOT AVBL
FRANKLIN*      CLEAR     19  12  73 N3        30.22R
NEW CASTLE     FAIR      23  17  78 CALM      30.28R
BEAVER COUNTY  NOT AVBL
BUTLER*        CLEAR     25  14  63 NW5       30.25R
PITTSBURGH INT MOCLDY    26  20  77 NW6       30.24R
PITTSBURGH     LGT SNOW  27  21  80 N6        30.23R
INDIANA*       CLEAR     21  18  86 N3        30.22R
LATROBE        CLOUDY    28  19  69 N8        30.25R
WASHINGTON CO* CLEAR     25  18  74 CALM      30.26R
$$

PAZ004>006-010>012-017>019-024>028-033>037-041-042-045-046-049>053-160900-
CENTRAL PENNSYLVANIA

CITY           SKY/WX    TMP DP  RH WIND       PRES   REMARKS
BRADFORD       MOCLDY    17   9  70 NW10      30.15R WCI   5
DUBOIS         CLEAR     21  12  68 NW8       30.17R
CLEARFIELD     CLEAR     22  12  65 NW10      30.19R WCI  11
JOHNSTOWN      CLOUDY    20  13  74 N14G20    30.13R WCI   7
ALTOONA        MOCLDY    26  14  60 N14G20    30.18R WCI  14
STATE COLLEGE    N/A     26   8  46 N8        30.19R
WILLIAMSPORT   CLEAR     26   9  48 NW15      30.19R WCI  14
SELINSGROVE    CLEAR     28  12  51 NW12      30.19R
FT INDIANTOWN  CLEAR     30  13  50 NW13G23   30.15R
CAPITAL CITY   CLEAR     31  10  41 NW23G29   30.18R
HARRISBURG     PTCLDY    32  12  43 NW21      30.17R
YORK           CLEAR     30  14  51 NW15G21   30.16R
$$

PAZ038>040-043-044-047-048-054-055-060>062-067>071-160900-
EASTERN PENNSYLVANIA

CITY           SKY/WX    TMP DP  RH WIND       PRES   REMARKS
SCRANTON       MOCLDY    25  15  66 NW12G22   30.10R WCI  14
MOUNT POCONO   LGT SNOW  22  15  75 NW17G30   29.98R WCI   8
ALLENTOWN      MOCLDY    29  16  58 NW17G23   30.12R
QUAKERTOWN*    MOCLDY    28  18  64 W8G20     30.13R
READING        CLEAR     31  14  49 NW23G29   30.14R
LANCASTER      CLEAR     30  15  53 NW14      30.14R
COATESVILLE    NOT AVBL
POTTSTOWN      PTCLDY    30  16  56 NW14G20   30.15R
BLUE BELL      MOCLDY    32  18  55 NW8G21    30.12R
DOYLESTOWN     MOCLDY    30  19  63 NW15G22   30.10R
WILLOW GROVE   NOT AVBL
NORTH PHILA    MOCLDY    34  17  50 NW16G30   30.13R
PHILADELPHIA   PTCLDY    34  16  47 N22G36    30.14R
$$



USA.gov is the U.S. government's official web portal to all federal, state and local government web resources and services.